Regional Weather Roundup
Issued by NWS

Home | Current Version | Previous Version | Graphics & Text | Print | Product List | Glossary On
Versions: 1 2 3 4 5 6 7 8 9 10 11 12 13 14 15 16 17 18 19 20 21 22 23 24 25 26 27 28 29 30 31 32 33 34 35 36 37 38 39 40 41 42 43 44 45 46 47 48 49 50
000
ASUS43 KOAX 162110
RWRNE

WEATHER ROUNDUP FOR NEBRASKA
NATIONAL WEATHER SERVICE OMAHA NE
300 PM CST SAT DEC 16 2017

NOTES: SATELLITE DATA IS BEING USED TO AUGMENT CLOUD COVER ABOVE
       12000 FEET.
       "FAIR" INDICATES FEW OR NO CLOUDS BELOW 12,000 FEET WITH NO
       SIGNIFICANT WEATHER AND/OR OBSTRUCTIONS TO VISIBILITY.


NEZ001>004-019>022-054>056-162200-
NEBRASKA PANHANDLE

CITY           SKY/WX    TMP DP  RH WIND       PRES   REMARKS
SCOTTSBLUFF    CLOUDY    41  29  62 NE16      29.86F
ALLIANCE       CLOUDY    36  30  79 NE17      29.86F WCI  26
CHADRON        CLOUDY    40  27  59 NE15      29.91R WCI  32
GORDON         CLOUDY    37  30  77 NE13      29.90S WCI  28
KIMBALL        CLOUDY    42  24  48 E12       29.83S
SIDNEY         SUNNY     44  25  47 NE18      29.82F
$$

NEZ057>060-069>072-079>082-162200-
SOUTHWEST NEBRASKA

CITY           SKY/WX    TMP DP  RH WIND       PRES   REMARKS
NORTH PLATTE   CLOUDY    46  29  51 NE16      29.85R
IMPERIAL       CLOUDY    50  28  42 NE21      29.81R
LEXINGTON      CLOUDY    50  30  47 NE17      29.83R
MCCOOK         CLOUDY    53  25  33 NE22G29   29.78R
OGALLALA       CLOUDY    44  30  57 NE20      29.84S
$$

NEZ005>010-023>029-035>040-094-162200-
NORTH CENTRAL NEBRASKA

CITY           SKY/WX    TMP DP  RH WIND       PRES   REMARKS
VALENTINE      CLOUDY    41  32  70 NE10      29.91S
AINSWORTH      CLOUDY    38  34  83 N13       29.90S WCI  31
BROKEN BOW     PTSUNNY   46  30  53 N13       29.85R
O`NEILL        CLOUDY    41  32  70 N9        29.90R
ORD            CLOUDY    46  31  55 NE12      29.87R
THEDFORD       CLOUDY    40  34  78 N14       29.89S WCI  32
$$

NEZ041-046>049-061>064-073>077-083>087-162200-
SOUTH CENTRAL NEBRASKA

CITY           SKY/WX    TMP DP  RH WIND       PRES   REMARKS
GRAND ISLAND   CLOUDY    51  32  48 NE17      29.85R
AURORA         CLOUDY    52  30  43 NE15      29.84R
HASTINGS       CLOUDY    51  26  37 NE15      29.82S
HEBRON         SUNNY     56  22  26 E7        29.80S
HOLDREGE       CLOUDY    52  28  39 NE16      29.80R
KEARNEY        CLOUDY    51  27  39 NE20      29.83R
YORK           SUNNY     52  27  37 NE14      29.85R
$$

NEZ011>018-030>034-042>045-162200-
NORTHEAST NEBRASKA

CITY           SKY/WX    TMP DP  RH WIND       PRES   REMARKS
NORFOLK        MOSUNNY   47  30  51 N14       29.84S
ALBION         CLOUDY    46  31  56 N10       29.86R
BLAIR          SUNNY     51  28  41 N10       29.84R
COLUMBUS       SUNNY     52  31  44 NE14      29.86R
FREMONT        SUNNY     51  27  39 N8        29.86R
TEKAMAH        MOSUNNY   50  27  40 N14       29.85R
WAYNE          CLOUDY    46  30  53 N8        29.87R
$$

NEZ050>053-065>068-078-088>093-162200-
SOUTHEAST NEBRASKA

CITY           SKY/WX    TMP DP  RH WIND       PRES   REMARKS
LINCOLN        SUNNY     55  24  30 NE10      29.85S
OMAHA EPPLEY   PTSUNNY   52  27  38 N7        29.85R
BEATRICE       SUNNY     54  25  32 E6        29.83S
FALLS CITY     SUNNY     56  25  30 S7        29.84S
NEBRASKA CITY  SUNNY     53  26  34 CALM      29.85R
PLATTSMOUTH    SUNNY     54  26  34 SE5       29.85R
$$

NEZ044-045-051>053-067-162200-
OMAHA AREA

CITY           SKY/WX    TMP DP  RH WIND       PRES   REMARKS
OMAHA EPPLEY   PTSUNNY   52  27  38 N7        29.85R
BLAIR          SUNNY     51  28  41 N10       29.84R
FREMONT        SUNNY     51  27  39 N8        29.86R
MILLARD        SUNNY     54  28  36 CALM      29.85R
OFFUTT AFB     SUNNY     55  25  31 N6        29.84R
PLATTSMOUTH    SUNNY     54  26  34 SE5       29.85R
WAHOO          FAIR      53  26  35 N12       29.85R
$$




USA.gov is the U.S. government's official web portal to all federal, state and local government web resources and services.